When you browse on this site, cookies collect data to enhance your experience and personalize the content and advertising you see.
Visit our Privacy Policy to learn more. By continuing to use the site, you agree to this use of cookies and data.
  • In United Kingdom
  • List of Countries
  • For 7 days
  • Water Temperature
  • Weather Map
  • Weather Widgets
  • user-avatar
    Login

    Hourly Weather Riga

    Today, 18 August, Sunday

    Time Temperature Precipitation Wind Pressure Humidity
    00:00 +16°C° 0 mm 3 mps 759 mmHg 80%
    01:00 +14°C° 0 mm 3 mps 759 mmHg 82%
    02:00 +14°C° 0 mm 3 mps 759 mmHg 84%
    03:00 +14°C° 0 mm 3 mps 759 mmHg 85%
    04:00 +14°C° 0 mm 3 mps 759 mmHg 85%
    05:00 +13°C° 0 mm 3 mps 758 mmHg 85%
    06:00 +16°C° 0 mm 3 mps 758 mmHg 80%
    07:00 +17°C° 0 mm 4 mps 758 mmHg 75%
    08:00 +18°C° 0 mm 4 mps 758 mmHg 70%
    09:00 +20°C° 0 mm 3 mps 758 mmHg 66%
    10:00 +21°C° 0 mm 3 mps 758 mmHg 62%
    11:00 +24°C° 0 mm 3 mps 758 mmHg 57%
    12:00 +24°C° 0.1 mm 3 mps 758 mmHg 60%
    13:00 +24°C° 0.1 mm 3 mps 757 mmHg 62%
    14:00 +24°C° 0.1 mm 3 mps 757 mmHg 65%
    15:00 +25°C° 0 mm 3 mps 757 mmHg 62%
    16:00 +25°C° 0 mm 3 mps 757 mmHg 59%
    17:00 +25°C° 0 mm 3 mps 757 mmHg 57%
    18:00 +24°C° 0 mm 3 mps 757 mmHg 64%
    19:00 +22°C° 0 mm 3 mps 756 mmHg 71%
    20:00 +20°C° 0 mm 3 mps 756 mmHg 78%
    21:00 +20°C° 0 mm 4 mps 756 mmHg 78%
    22:00 +20°C° 0 mm 4 mps 756 mmHg 78%
    23:00 +19°C° 0 mm 5 mps 756 mmHg 78%

    Tomorrow, 19 August, Monday

    Time Temperature Precipitation Wind Pressure Humidity
    00:00 +19°C° 0 mm 5 mps 755 mmHg 77%
    01:00 +19°C° 0 mm 5 mps 755 mmHg 77%
    02:00 +20°C° 0 mm 5 mps 755 mmHg 76%
    03:00 +20°C° 0 mm 5 mps 755 mmHg 76%
    04:00 +20°C° 0 mm 5 mps 754 mmHg 76%
    05:00 +20°C° 0 mm 4 mps 754 mmHg 77%
    06:00 +20°C° 0 mm 4 mps 754 mmHg 77%
    07:00 +20°C° 0 mm 4 mps 755 mmHg 77%
    08:00 +20°C° 0 mm 4 mps 755 mmHg 77%
    09:00 +21°C° 0.1 mm 4 mps 755 mmHg 75%
    10:00 +22°C° 0.1 mm 4 mps 756 mmHg 73%
    11:00 +23°C° 0.1 mm 4 mps 757 mmHg 71%
    12:00 +25°C° 0.1 mm 4 mps 757 mmHg 67%
    13:00 +25°C° 0.1 mm 4 mps 757 mmHg 63%
    14:00 +25°C° 0.1 mm 4 mps 758 mmHg 58%
    15:00 +25°C° 0 mm 4 mps 758 mmHg 58%
    16:00 +25°C° 0 mm 3 mps 759 mmHg 59%
    17:00 +24°C° 0 mm 2 mps 759 mmHg 59%
    18:00 +23°C° 0 mm 2 mps 760 mmHg 64%
    19:00 +21°C° 0 mm 2 mps 760 mmHg 70%
    20:00 +19°C° 0 mm 2 mps 760 mmHg 76%
    21:00 +18°C° 0 mm 2 mps 760 mmHg 79%
    22:00 +18°C° 0 mm 2 mps 761 mmHg 83%
    23:00 +17°C° 0 mm 2 mps 761 mmHg 86%

    Day after tomorrow, 20 August, Tuesday

    Time Temperature Precipitation Wind Pressure Humidity
    00:00 +16°C° 0 mm 2 mps 761 mmHg 89%
    01:00 +16°C° 0 mm 2 mps 762 mmHg 91%
    02:00 +14°C° 0 mm 3 mps 762 mmHg 94%
    03:00 +14°C° 0 mm 3 mps 762 mmHg 94%
    04:00 +13°C° 0 mm 3 mps 762 mmHg 95%
    05:00 +13°C° 0 mm 3 mps 763 mmHg 95%
    06:00 +14°C° 0 mm 3 mps 763 mmHg 90%
    07:00 +16°C° 0 mm 3 mps 763 mmHg 85%
    08:00 +18°C° 0 mm 3 mps 764 mmHg 80%
    09:00 +19°C° 0 mm 3 mps 764 mmHg 72%
    10:00 +21°C° 0 mm 3 mps 764 mmHg 64%
    11:00 +22°C° 0 mm 3 mps 764 mmHg 56%
    12:00 +24°C° 0 mm 3 mps 765 mmHg 53%
    13:00 +24°C° 0 mm 3 mps 765 mmHg 50%
    14:00 +25°C° 0 mm 2 mps 765 mmHg 47%
    15:00 +25°C° 0 mm 2 mps 765 mmHg 49%
    16:00 +24°C° 0 mm 2 mps 765 mmHg 51%
    17:00 +24°C° 0 mm 2 mps 765 mmHg 53%
    18:00 +21°C° 0 mm 2 mps 765 mmHg 60%
    19:00 +20°C° 0 mm 2 mps 765 mmHg 67%
    20:00 +18°C° 0 mm 2 mps 765 mmHg 74%
    21:00 +18°C° 0 mm 2 mps 766 mmHg 75%
    22:00 +17°C° 0 mm 2 mps 766 mmHg 77%
    23:00 +18°C° 0 mm 1 mps 766 mmHg 78%

    21 August, Wednesday

    Time Temperature Precipitation Wind Pressure Humidity
    00:00 +16°C° 0 mm 2 mps 766 mmHg 80%
    01:00 +16°C° 0 mm 2 mps 766 mmHg 82%
    02:00 +15°C° 0 mm 2 mps 766 mmHg 85%
    03:00 +15°C° 0 mm 2 mps 766 mmHg 86%
    04:00 +14°C° 0 mm 2 mps 767 mmHg 87%
    05:00 +14°C° 0 mm 1 mps 767 mmHg 89%
    06:00 +15°C° 0 mm 1 mps 767 mmHg 82%
    07:00 +18°C° 0 mm 1 mps 767 mmHg 75%
    08:00 +19°C° 0 mm 1 mps 767 mmHg 68%
    09:00 +21°C° 0 mm 1 mps 767 mmHg 63%
    10:00 +22°C° 0 mm 1 mps 767 mmHg 58%
    11:00 +23°C° 0 mm 1 mps 767 mmHg 53%
    12:00 +23°C° 0 mm 2 mps 767 mmHg 54%
    13:00 +21°C° 0 mm 2 mps 767 mmHg 55%
    14:00 +21°C° 0 mm 3 mps 767 mmHg 56%
    15:00 +21°C° 0.1 mm 2 mps 766 mmHg 62%
    16:00 +20°C° 0.1 mm 2 mps 766 mmHg 67%
    17:00 +19°C° 0.1 mm 2 mps 766 mmHg 73%
    18:00 +18°C° 0.1 mm 2 mps 766 mmHg 77%
    19:00 +17°C° 0.1 mm 2 mps 766 mmHg 82%
    20:00 +16°C° 0.1 mm 2 mps 766 mmHg 86%
    21:00 +16°C° 0 mm 2 mps 766 mmHg 88%
    22:00 +15°C° 0 mm 2 mps 766 mmHg 91%
    23:00 +13°C° 0 mm 3 mps 766 mmHg 93%

    22 August, Thursday

    Time Temperature Precipitation Wind Pressure Humidity
    00:00 +13°C° 0 mm 3 mps 766 mmHg 93%
    01:00 +13°C° 0 mm 3 mps 767 mmHg 93%
    02:00 +12°C° 0 mm 3 mps 767 mmHg 93%
    03:00 +12°C° 0 mm 3 mps 767 mmHg 93%
    04:00 +13°C° 0 mm 2 mps 767 mmHg 94%
    05:00 +13°C° 0 mm 2 mps 767 mmHg 94%
    06:00 +14°C° 0 mm 2 mps 767 mmHg 90%
    07:00 +15°C° 0 mm 2 mps 767 mmHg 87%
    08:00 +16°C° 0 mm 2 mps 767 mmHg 83%
    09:00 +18°C° 0 mm 2 mps 767 mmHg 73%
    10:00 +19°C° 0 mm 2 mps 767 mmHg 63%
    11:00 +21°C° 0 mm 2 mps 768 mmHg 53%
    12:00 +21°C° 0 mm 2 mps 768 mmHg 51%
    13:00 +23°C° 0 mm 2 mps 767 mmHg 49%
    14:00 +23°C° 0 mm 2 mps 767 mmHg 47%
    15:00 +23°C° 0 mm 2 mps 767 mmHg 49%
    16:00 +23°C° 0 mm 2 mps 767 mmHg 50%
    17:00 +21°C° 0 mm 2 mps 767 mmHg 51%
    18:00 +20°C° 0 mm 2 mps 767 mmHg 58%
    19:00 +18°C° 0 mm 2 mps 767 mmHg 65%
    20:00 +16°C° 0 mm 2 mps 768 mmHg 72%
    21:00 +16°C° 0 mm 1 mps 768 mmHg 75%
    22:00 +15°C° 0 mm 1 mps 768 mmHg 78%
    23:00 +14°C° 0 mm 1 mps 768 mmHg 81%

    23 August, Friday

    Time Temperature Precipitation Wind Pressure Humidity
    00:00 +14°C° 0 mm 1 mps 768 mmHg 81%
    01:00 +13°C° 0 mm 1 mps 768 mmHg 82%
    02:00 +13°C° 0 mm 1 mps 769 mmHg 83%
    03:00 +13°C° 0 mm 1 mps 768 mmHg 85%
    04:00 +13°C° 0 mm 1 mps 768 mmHg 86%
    05:00 +12°C° 0 mm 1 mps 768 mmHg 88%
    06:00 +14°C° 0 mm 1 mps 768 mmHg 84%
    07:00 +15°C° 0 mm 1 mps 768 mmHg 80%
    08:00 +16°C° 0 mm 1 mps 768 mmHg 76%
    09:00 +17°C° 0 mm 2 mps 768 mmHg 69%
    10:00 +19°C° 0 mm 2 mps 768 mmHg 61%
    11:00 +20°C° 0 mm 2 mps 768 mmHg 54%
    12:00 +21°C° 0.1 mm 2 mps 768 mmHg 53%
    13:00 +21°C° 0.1 mm 2 mps 768 mmHg 52%
    14:00 +22°C° 0.1 mm 3 mps 768 mmHg 51%
    15:00 +21°C° 0.6 mm 2 mps 767 mmHg 58%
    16:00 +20°C° 0.6 mm 2 mps 767 mmHg 65%
    17:00 +20°C° 0.6 mm 2 mps 767 mmHg 72%
    18:00 +18°C° 0.1 mm 2 mps 767 mmHg 76%
    19:00 +18°C° 0.1 mm 1 mps 767 mmHg 80%
    20:00 +16°C° 0.1 mm 1 mps 767 mmHg 84%
    21:00 +15°C° 0 mm 1 mps 767 mmHg 86%
    22:00 +14°C° 0 mm 1 mps 768 mmHg 87%
    23:00 +14°C° 0 mm 2 mps 768 mmHg 89%
    Show more